Time,TemperatureF,DewpointF,PressureIn,WindDirection,WindDirectionDegrees,WindSpeedMPH,WindSpeedGustMPH,Humidity,HourlyPrecipIn,Conditions,Clouds,dailyrainin,SoftwareType,DateUTC
2013-05-14 00:01:00,34.0,23.5,28.23,West,275,0.0,0.0,65,0.00,,,6.62,WUHU216DAVISWMX,2013-05-14 04:01:00,
2013-05-14 00:06:00,33.6,23.9,28.23,West,275,0.0,0.0,67,0.00,,,6.62,WUHU216DAVISWMX,2013-05-14 04:06:00,
2013-05-14 00:11:00,33.0,24.0,28.23,West,275,0.0,0.0,69,0.00,,,6.62,WUHU216DAVISWMX,2013-05-14 04:11:00,
2013-05-14 00:16:00,32.5,24.2,28.23,West,275,0.0,0.0,71,0.00,,,6.62,WUHU216DAVISWMX,2013-05-14 04:16:00,
2013-05-14 00:21:00,32.1,24.1,28.23,West,275,0.0,0.0,72,0.00,,,6.62,WUHU216DAVISWMX,2013-05-14 04:21:00,
2013-05-14 00:26:00,31.6,24.0,28.23,West,275,0.0,0.0,73,0.00,,,6.62,WUHU216DAVISWMX,2013-05-14 04:26:00,
2013-05-14 00:31:00,31.4,24.4,28.23,West,275,0.0,0.0,75,0.00,,,6.62,WUHU216DAVISWMX,2013-05-14 04:31:00,
2013-05-14 00:36:00,31.1,24.5,28.22,West,275,0.0,0.0,76,0.00,,,6.62,WUHU216DAVISWMX,2013-05-14 04:36:00,
2013-05-14 00:41:00,30.8,24.8,28.22,West,275,0.0,0.0,78,0.00,,,6.62,WUHU216DAVISWMX,2013-05-14 04:41:00,
2013-05-14 00:46:00,30.5,24.5,28.22,West,275,0.0,0.0,78,0.00,,,6.62,WUHU216DAVISWMX,2013-05-14 04:46:00,
2013-05-14 00:51:00,30.4,24.7,28.23,West,275,0.0,0.0,79,0.00,,,6.62,WUHU216DAVISWMX,2013-05-14 04:51:00,
2013-05-14 00:56:00,30.3,24.9,28.23,West,275,0.0,0.0,80,0.00,,,6.62,WUHU216DAVISWMX,2013-05-14 04:56:00,
2013-05-14 01:01:00,30.0,24.6,28.23,West,275,0.0,0.0,80,0.00,,,6.62,WUHU216DAVISWMX,2013-05-14 05:01:00,
2013-05-14 01:06:00,29.9,24.5,28.23,West,275,0.0,0.0,80,0.00,,,6.62,WUHU216DAVISWMX,2013-05-14 05:06:00,
2013-05-14 01:11:00,29.5,24.7,28.23,West,275,0.0,0.0,82,0.00,,,6.62,WUHU216DAVISWMX,2013-05-14 05:11:00,
2013-05-14 01:16:00,29.4,24.6,28.23,West,275,0.0,0.0,82,0.00,,,6.62,WUHU216DAVISWMX,2013-05-14 05:16:00,
2013-05-14 01:21:00,29.3,24.5,28.23,West,275,0.0,0.0,82,0.00,,,6.62,WUHU216DAVISWMX,2013-05-14 05:21:00,
2013-05-14 01:26:00,29.1,24.6,28.23,West,275,0.0,0.0,83,0.00,,,6.62,WUHU216DAVISWMX,2013-05-14 05:26:00,
2013-05-14 01:31:00,29.0,24.5,28.23,West,275,0.0,0.0,83,0.00,,,6.62,WUHU216DAVISWMX,2013-05-14 05:31:00,
2013-05-14 01:36:00,28.8,24.6,28.23,West,275,0.0,0.0,84,0.00,,,6.62,WUHU216DAVISWMX,2013-05-14 05:36:00,
2013-05-14 01:41:00,28.7,24.5,28.23,West,275,0.0,0.0,84,0.00,,,6.62,WUHU216DAVISWMX,2013-05-14 05:41:00,
2013-05-14 01:46:00,28.4,24.2,28.23,West,275,0.0,0.0,84,0.00,,,6.62,WUHU216DAVISWMX,2013-05-14 05:46:00,
2013-05-14 01:51:00,28.3,24.1,28.23,West,275,0.0,0.0,84,0.00,,,6.62,WUHU216DAVISWMX,2013-05-14 05:51:00,
2013-05-14 01:56:00,28.1,24.1,28.23,West,275,0.0,0.0,85,0.00,,,6.62,WUHU216DAVISWMX,2013-05-14 05:56:00,
2013-05-14 02:01:00,28.1,24.4,28.23,West,275,0.0,0.0,86,0.00,,,6.62,WUHU216DAVISWMX,2013-05-14 06:01:00,
2013-05-14 02:06:00,28.0,24.3,28.23,West,275,0.0,0.0,86,0.00,,,6.62,WUHU216DAVISWMX,2013-05-14 06:06:00,
2013-05-14 02:11:00,28.0,24.6,28.23,West,275,0.0,0.0,87,0.00,,,6.62,WUHU216DAVISWMX,2013-05-14 06:11:00,
2013-05-14 02:16:00,28.0,24.6,28.23,West,275,0.0,0.0,87,0.00,,,6.62,WUHU216DAVISWMX,2013-05-14 06:16:00,
2013-05-14 02:21:00,27.9,24.5,28.23,West,275,0.0,0.0,87,0.00,,,6.62,WUHU216DAVISWMX,2013-05-14 06:21:00,
2013-05-14 02:26:00,27.9,24.5,28.23,West,275,0.0,0.0,87,0.00,,,6.62,WUHU216DAVISWMX,2013-05-14 06:26:00,
2013-05-14 02:31:00,27.9,24.8,28.23,West,275,0.0,0.0,88,0.00,,,6.62,WUHU216DAVISWMX,2013-05-14 06:31:00,
2013-05-14 02:36:00,27.8,24.7,28.23,West,275,0.0,0.0,88,0.00,,,6.62,WUHU216DAVISWMX,2013-05-14 06:36:00,
2013-05-14 02:41:00,27.7,24.6,28.23,West,275,0.0,0.0,88,0.00,,,6.62,WUHU216DAVISWMX,2013-05-14 06:41:00,
2013-05-14 02:46:00,27.7,24.8,28.23,West,275,0.0,0.0,89,0.00,,,6.62,WUHU216DAVISWMX,2013-05-14 06:46:00,
2013-05-14 02:51:00,27.7,24.8,28.23,West,275,0.0,0.0,89,0.00,,,6.62,WUHU216DAVISWMX,2013-05-14 06:51:00,
2013-05-14 02:56:00,27.6,24.7,28.23,West,275,0.0,0.0,89,0.00,,,6.62,WUHU216DAVISWMX,2013-05-14 06:56:00,
2013-05-14 03:01:00,27.6,24.7,28.23,West,275,0.0,0.0,89,0.00,,,6.62,WUHU216DAVISWMX,2013-05-14 07:01:00,
2013-05-14 03:06:00,27.5,24.6,28.23,West,275,0.0,0.0,89,0.00,,,6.62,WUHU216DAVISWMX,2013-05-14 07:06:00,
2013-05-14 03:11:00,27.4,24.5,28.23,West,275,0.0,0.0,89,0.00,,,6.62,WUHU216DAVISWMX,2013-05-14 07:11:00,
2013-05-14 03:16:00,27.2,24.3,28.23,West,275,0.0,0.0,89,0.00,,,6.62,WUHU216DAVISWMX,2013-05-14 07:16:00,
2013-05-14 03:21:00,27.0,24.1,28.23,West,275,0.0,0.0,89,0.00,,,6.62,WUHU216DAVISWMX,2013-05-14 07:21:00,
2013-05-14 03:26:00,27.0,24.1,28.23,West,275,0.0,0.0,89,0.00,,,6.62,WUHU216DAVISWMX,2013-05-14 07:26:00,
2013-05-14 03:31:00,26.9,24.0,28.23,West,275,0.0,0.0,89,0.00,,,6.62,WUHU216DAVISWMX,2013-05-14 07:31:00,
2013-05-14 03:36:00,26.9,24.0,28.23,West,275,0.0,0.0,89,0.00,,,6.62,WUHU216DAVISWMX,2013-05-14 07:36:00,
2013-05-14 03:41:00,26.8,23.7,28.23,West,275,0.0,0.0,88,0.00,,,6.62,WUHU216DAVISWMX,2013-05-14 07:41:00,
2013-05-14 03:46:00,26.8,23.9,28.23,West,275,0.0,0.0,89,0.00,,,6.62,WUHU216DAVISWMX,2013-05-14 07:46:00,
2013-05-14 03:51:00,26.8,23.7,28.23,West,275,0.0,0.0,88,0.00,,,6.62,WUHU216DAVISWMX,2013-05-14 07:51:00,
2013-05-14 03:56:00,26.9,24.0,28.23,West,275,0.0,0.0,89,0.00,,,6.62,WUHU216DAVISWMX,2013-05-14 07:56:00,
2013-05-14 04:01:00,26.8,23.9,28.23,West,275,0.0,0.0,89,0.00,,,6.62,WUHU216DAVISWMX,2013-05-14 08:01:00,
2013-05-14 04:06:00,26.6,23.8,28.22,West,275,0.0,0.0,89,0.00,,,6.62,WUHU216DAVISWMX,2013-05-14 08:06:00,
2013-05-14 04:11:00,26.5,23.7,28.23,West,275,0.0,0.0,89,0.00,,,6.62,WUHU216DAVISWMX,2013-05-14 08:11:00,
2013-05-14 04:16:00,26.5,23.7,28.23,West,275,0.0,0.0,89,0.00,,,6.62,WUHU216DAVISWMX,2013-05-14 08:16:00,
2013-05-14 04:21:00,26.3,23.5,28.23,West,275,0.0,0.0,89,0.00,,,6.62,WUHU216DAVISWMX,2013-05-14 08:21:00,
2013-05-14 04:26:00,26.2,23.4,28.23,West,275,0.0,0.0,89,0.00,,,6.62,WUHU216DAVISWMX,2013-05-14 08:26:00,
2013-05-14 04:31:00,26.2,23.4,28.23,West,275,0.0,0.0,89,0.00,,,6.62,WUHU216DAVISWMX,2013-05-14 08:31:00,
2013-05-14 04:36:00,26.2,23.4,28.23,West,275,0.0,0.0,89,0.00,,,6.62,WUHU216DAVISWMX,2013-05-14 08:36:00,
2013-05-14 04:41:00,26.2,23.4,28.23,West,275,0.0,0.0,89,0.00,,,6.62,WUHU216DAVISWMX,2013-05-14 08:41:00,
2013-05-14 04:46:00,26.2,23.6,28.23,West,275,0.0,0.0,90,0.00,,,6.62,WUHU216DAVISWMX,2013-05-14 08:46:00,
2013-05-14 04:51:00,26.2,23.6,28.23,West,275,0.0,0.0,90,0.00,,,6.62,WUHU216DAVISWMX,2013-05-14 08:51:00,
2013-05-14 04:56:00,26.1,23.5,28.23,West,275,0.0,0.0,90,0.00,,,6.62,WUHU216DAVISWMX,2013-05-14 08:56:00,
2013-05-14 05:01:00,26.1,23.5,28.23,West,275,0.0,0.0,90,0.00,,,6.62,WUHU216DAVISWMX,2013-05-14 09:01:00,
2013-05-14 05:06:00,25.9,23.3,28.23,West,275,0.0,0.0,90,0.00,,,6.62,WUHU216DAVISWMX,2013-05-14 09:06:00,
2013-05-14 05:11:00,25.9,23.3,28.23,West,275,0.0,0.0,90,0.00,,,6.62,WUHU216DAVISWMX,2013-05-14 09:11:00,
2013-05-14 05:16:00,25.9,23.3,28.23,West,275,0.0,0.0,90,0.00,,,6.62,WUHU216DAVISWMX,2013-05-14 09:16:00,
2013-05-14 05:21:00,25.9,23.3,28.23,West,275,0.0,0.0,90,0.00,,,6.62,WUHU216DAVISWMX,2013-05-14 09:21:00,
2013-05-14 05:26:00,25.8,23.2,28.23,West,275,0.0,0.0,90,0.00,,,6.62,WUHU216DAVISWMX,2013-05-14 09:26:00,
2013-05-14 05:31:00,25.6,23.0,28.23,West,275,0.0,0.0,90,0.00,,,6.62,WUHU216DAVISWMX,2013-05-14 09:31:00,
2013-05-14 05:36:00,25.5,23.2,28.23,West,275,0.0,0.0,91,0.00,,,6.62,WUHU216DAVISWMX,2013-05-14 09:36:00,
2013-05-14 05:41:00,25.5,22.9,28.23,West,275,0.0,0.0,90,0.00,,,6.62,WUHU216DAVISWMX,2013-05-14 09:41:00,
2013-05-14 05:46:00,25.5,22.9,28.23,West,275,0.0,0.0,90,0.00,,,6.62,WUHU216DAVISWMX,2013-05-14 09:46:00,
2013-05-14 05:51:00,25.4,22.8,28.23,West,275,0.0,0.0,90,0.00,,,6.62,WUHU216DAVISWMX,2013-05-14 09:51:00,
2013-05-14 05:56:00,25.2,22.9,28.23,West,275,0.0,0.0,91,0.00,,,6.62,WUHU216DAVISWMX,2013-05-14 09:56:00,
2013-05-14 06:01:00,25.2,23.2,28.23,West,275,0.0,0.0,92,0.00,,,6.62,WUHU216DAVISWMX,2013-05-14 10:01:00,
2013-05-14 06:06:00,25.4,23.4,28.23,West,275,0.0,0.0,92,0.00,,,6.62,WUHU216DAVISWMX,2013-05-14 10:06:00,
2013-05-14 06:11:00,25.4,23.4,28.23,West,275,0.0,0.0,92,0.00,,,6.62,WUHU216DAVISWMX,2013-05-14 10:11:00,
2013-05-14 06:17:00,25.5,23.7,28.23,West,275,0.0,0.0,93,0.00,,,6.62,WUHU216DAVISWMX,2013-05-14 10:17:00,
2013-05-14 06:22:00,25.5,23.5,28.23,West,275,0.0,0.0,92,0.00,,,6.62,WUHU216DAVISWMX,2013-05-14 10:22:00,
2013-05-14 06:27:00,25.7,23.9,28.23,West,275,0.0,0.0,93,0.00,,,6.62,WUHU216DAVISWMX,2013-05-14 10:27:00,
2013-05-14 06:32:00,25.8,24.0,28.23,West,275,0.0,0.0,93,0.00,,,6.62,WUHU216DAVISWMX,2013-05-14 10:32:00,
2013-05-14 06:37:00,25.9,24.1,28.23,West,275,0.0,0.0,93,0.00,,,6.62,WUHU216DAVISWMX,2013-05-14 10:37:00,
2013-05-14 06:42:00,25.9,24.1,28.23,West,275,0.0,0.0,93,0.00,,,6.62,WUHU216DAVISWMX,2013-05-14 10:42:00,
2013-05-14 06:47:00,25.9,24.1,28.23,West,275,0.0,0.0,93,0.00,,,6.62,WUHU216DAVISWMX,2013-05-14 10:47:00,
2013-05-14 06:52:00,26.2,24.7,28.23,West,275,0.0,0.0,94,0.00,,,6.62,WUHU216DAVISWMX,2013-05-14 10:52:00,
2013-05-14 06:57:00,26.5,25.0,28.23,West,275,0.0,0.0,94,0.00,,,6.62,WUHU216DAVISWMX,2013-05-14 10:57:00,
2013-05-14 07:02:00,26.8,25.3,28.24,West,275,0.0,0.0,94,0.00,,,6.62,WUHU216DAVISWMX,2013-05-14 11:02:00,
2013-05-14 07:07:00,27.0,25.5,28.24,West,275,0.0,0.0,94,0.00,,,6.62,WUHU216DAVISWMX,2013-05-14 11:07:00,
2013-05-14 07:12:00,27.0,25.5,28.24,West,275,0.0,0.0,94,0.00,,,6.62,WUHU216DAVISWMX,2013-05-14 11:12:00,
2013-05-14 07:17:00,27.0,25.5,28.25,West,275,0.0,0.0,94,0.00,,,6.62,WUHU216DAVISWMX,2013-05-14 11:17:00,
2013-05-14 07:22:00,27.0,25.5,28.24,West,275,0.0,0.0,94,0.00,,,6.62,WUHU216DAVISWMX,2013-05-14 11:22:00,
2013-05-14 07:27:00,28.8,27.5,28.25,West,275,0.0,0.0,95,0.00,,,6.62,WUHU216DAVISWMX,2013-05-14 11:27:00,
2013-05-14 07:32:00,28.8,27.5,28.25,West,275,0.0,0.0,95,0.00,,,6.62,WUHU216DAVISWMX,2013-05-14 11:32:00,
2013-05-14 07:37:00,29.1,27.8,28.24,West,275,0.0,0.0,95,0.00,,,6.62,WUHU216DAVISWMX,2013-05-14 11:37:00,
2013-05-14 07:42:00,29.1,27.5,28.25,West,275,0.0,0.0,94,0.00,,,6.62,WUHU216DAVISWMX,2013-05-14 11:42:00,
2013-05-14 07:47:00,29.2,27.6,28.25,West,275,0.0,0.0,94,0.00,,,6.62,WUHU216DAVISWMX,2013-05-14 11:47:00,
2013-05-14 07:52:00,29.5,27.9,28.25,West,275,0.0,0.0,94,0.00,,,6.62,WUHU216DAVISWMX,2013-05-14 11:52:00,
2013-05-14 07:57:00,30.3,29.0,28.25,West,275,0.0,0.0,95,0.00,,,6.62,WUHU216DAVISWMX,2013-05-14 11:57:00,
2013-05-14 08:02:00,31.0,29.4,28.25,West,275,0.0,0.0,94,0.00,,,6.62,WUHU216DAVISWMX,2013-05-14 12:02:00,
2013-05-14 08:07:00,31.3,29.7,28.25,West,275,0.0,0.0,94,0.00,,,6.62,WUHU216DAVISWMX,2013-05-14 12:07:00,
2013-05-14 08:12:00,31.8,30.2,28.25,West,275,0.0,1.0,94,0.00,,,6.62,WUHU216DAVISWMX,2013-05-14 12:12:00,
2013-05-14 08:17:00,32.1,30.3,28.25,West,275,0.0,1.0,93,0.00,,,6.62,WUHU216DAVISWMX,2013-05-14 12:17:00,
2013-05-14 08:22:00,32.2,30.1,28.25,West,275,0.0,0.0,92,0.00,,,6.62,WUHU216DAVISWMX,2013-05-14 12:22:00,
2013-05-14 08:27:00,33.2,31.1,28.24,West,275,0.0,0.0,92,0.00,,,6.62,WUHU216DAVISWMX,2013-05-14 12:27:00,
2013-05-14 08:32:00,33.3,30.6,28.25,West,275,0.0,0.0,90,0.00,,,6.62,WUHU216DAVISWMX,2013-05-14 12:32:00,
2013-05-14 08:37:00,34.3,31.4,28.25,West,275,0.0,0.0,89,0.00,,,6.62,WUHU216DAVISWMX,2013-05-14 12:37:00,
2013-05-14 08:42:00,35.3,32.3,28.25,West,275,0.0,0.0,89,0.00,,,6.62,WUHU216DAVISWMX,2013-05-14 12:42:00,
2013-05-14 08:47:00,36.4,32.6,28.25,West,275,0.0,0.0,86,0.00,,,6.62,WUHU216DAVISWMX,2013-05-14 12:47:00,
2013-05-14 08:52:00,37.0,32.6,28.25,West,275,0.0,0.0,84,0.00,,,6.62,WUHU216DAVISWMX,2013-05-14 12:52:00,
2013-05-14 08:57:00,36.9,31.3,28.25,West,275,0.0,2.0,80,0.00,,,6.62,WUHU216DAVISWMX,2013-05-14 12:57:00,
2013-05-14 09:02:00,37.1,31.2,28.25,West,275,0.0,2.0,79,0.00,,,6.62,WUHU216DAVISWMX,2013-05-14 13:02:00,
2013-05-14 09:07:00,37.6,31.1,28.25,West,275,0.0,3.0,77,0.00,,,6.62,WUHU216DAVISWMX,2013-05-14 13:07:00,
2013-05-14 09:12:00,38.0,30.8,28.25,WSW,241,6.0,6.0,75,0.00,,,6.62,WUHU216DAVISWMX,2013-05-14 13:12:00,
2013-05-14 09:17:00,38.4,30.6,28.25,WSW,237,0.0,7.0,73,0.00,,,6.62,WUHU216DAVISWMX,2013-05-14 13:17:00,
2013-05-14 09:22:00,39.2,30.7,28.25,SW,215,0.0,7.0,71,0.00,,,6.62,WUHU216DAVISWMX,2013-05-14 13:22:00,
2013-05-14 09:27:00,40.0,30.7,28.24,SSW,193,2.0,7.0,69,0.00,,,6.62,WUHU216DAVISWMX,2013-05-14 13:27:00,
2013-05-14 09:32:00,40.5,30.1,28.24,WSW,252,3.0,8.0,66,0.00,,,6.62,WUHU216DAVISWMX,2013-05-14 13:32:00,
2013-05-14 09:37:00,41.5,30.7,28.24,West,279,0.0,10.0,65,0.00,,,6.62,WUHU216DAVISWMX,2013-05-14 13:37:00,
2013-05-14 09:42:00,42.5,30.9,28.24,SSW,213,8.0,10.0,63,0.00,,,6.62,WUHU216DAVISWMX,2013-05-14 13:42:00,
2013-05-14 09:47:00,42.9,30.4,28.24,WSW,246,5.0,9.0,61,0.00,,,6.62,WUHU216DAVISWMX,2013-05-14 13:47:00,
2013-05-14 09:52:00,43.5,31.4,28.24,WSW,243,5.0,9.0,62,0.00,,,6.62,WUHU216DAVISWMX,2013-05-14 13:52:00,
2013-05-14 09:57:00,43.7,31.2,28.24,WSW,238,0.0,9.0,61,0.00,,,6.62,WUHU216DAVISWMX,2013-05-14 13:57:00,
2013-05-14 10:02:00,44.1,30.7,28.24,SSW,195,0.0,11.0,59,0.00,,,6.62,WUHU216DAVISWMX,2013-05-14 14:02:00,
2013-05-14 10:07:00,44.3,30.5,28.24,South,185,8.0,12.0,58,0.00,,,6.62,WUHU216DAVISWMX,2013-05-14 14:07:00,
2013-05-14 10:12:00,45.4,31.5,28.24,SSW,207,0.0,12.0,58,0.00,,,6.62,WUHU216DAVISWMX,2013-05-14 14:12:00,
2013-05-14 10:17:00,46.2,32.3,28.23,SSW,198,0.0,9.0,58,0.00,,,6.62,WUHU216DAVISWMX,2013-05-14 14:17:00,
2013-05-14 10:22:00,46.9,32.5,28.23,SSW,204,4.0,9.0,57,0.00,,,6.62,WUHU216DAVISWMX,2013-05-14 14:22:00,
2013-05-14 10:27:00,47.4,32.5,28.23,SW,218,6.0,9.0,56,0.00,,,6.62,WUHU216DAVISWMX,2013-05-14 14:27:00,
2013-05-14 10:32:00,47.3,31.5,28.23,WSW,244,2.0,12.0,54,0.00,,,6.62,WUHU216DAVISWMX,2013-05-14 14:32:00,
2013-05-14 10:37:00,47.4,31.1,28.22,WSW,245,0.0,13.0,53,0.00,,,6.62,WUHU216DAVISWMX,2013-05-14 14:37:00,
2013-05-14 10:42:00,48.2,31.9,28.22,SSW,213,9.0,13.0,53,0.00,,,6.62,WUHU216DAVISWMX,2013-05-14 14:42:00,
2013-05-14 10:47:00,48.2,31.4,28.22,SW,235,4.0,13.0,52,0.00,,,6.62,WUHU216DAVISWMX,2013-05-14 14:47:00,
2013-05-14 10:52:00,47.8,30.5,28.22,SW,234,2.0,13.0,51,0.00,,,6.62,WUHU216DAVISWMX,2013-05-14 14:52:00,
2013-05-14 10:57:00,48.4,31.6,28.22,WSW,242,13.0,13.0,52,0.00,,,6.62,WUHU216DAVISWMX,2013-05-14 14:57:00,
2013-05-14 11:02:00,48.6,30.8,28.22,SW,219,5.0,14.0,50,0.00,,,6.62,WUHU216DAVISWMX,2013-05-14 15:02:00,
2013-05-14 11:07:00,49.0,31.6,28.22,SW,230,1.0,14.0,51,0.00,,,6.62,WUHU216DAVISWMX,2013-05-14 15:07:00,
2013-05-14 11:12:00,50.0,31.5,28.22,WSW,237,10.0,17.0,49,0.00,,,6.62,WUHU216DAVISWMX,2013-05-14 15:12:00,
2013-05-14 11:17:00,50.0,31.5,28.22,SW,223,7.0,17.0,49,0.00,,,6.62,WUHU216DAVISWMX,2013-05-14 15:17:00,
2013-05-14 11:22:00,49.7,31.3,28.21,WSW,250,5.0,14.0,49,0.00,,,6.62,WUHU216DAVISWMX,2013-05-14 15:22:00,
2013-05-14 11:27:00,49.8,31.4,28.21,WSW,251,8.0,11.0,49,0.00,,,6.62,WUHU216DAVISWMX,2013-05-14 15:27:00,
2013-05-14 11:32:00,50.1,29.5,28.22,SW,220,4.0,14.0,45,0.00,,,6.62,WUHU216DAVISWMX,2013-05-14 15:32:00,
2013-05-14 11:37:00,50.1,30.0,28.21,WSW,249,1.0,14.0,46,0.00,,,6.62,WUHU216DAVISWMX,2013-05-14 15:37:00,
2013-05-14 11:42:00,50.0,29.9,28.22,WSW,255,2.0,9.0,46,0.00,,,6.62,WUHU216DAVISWMX,2013-05-14 15:42:00,
2013-05-14 11:47:00,50.4,30.3,28.22,WSW,250,0.0,9.0,46,0.00,,,6.62,WUHU216DAVISWMX,2013-05-14 15:47:00,
2013-05-14 11:52:00,50.0,29.4,28.21,WSW,247,9.0,13.0,45,0.00,,,6.62,WUHU216DAVISWMX,2013-05-14 15:52:00,
2013-05-14 11:57:00,50.1,29.5,28.21,WSW,248,11.0,13.0,45,0.00,,,6.62,WUHU216DAVISWMX,2013-05-14 15:57:00,
2013-05-14 12:02:00,50.1,29.5,28.21,SW,225,2.0,12.0,45,0.00,,,6.62,WUHU216DAVISWMX,2013-05-14 16:02:00,
2013-05-14 12:07:00,50.8,30.1,28.20,SSW,199,5.0,14.0,45,0.00,,,6.62,WUHU216DAVISWMX,2013-05-14 16:07:00,
2013-05-14 12:12:00,50.3,30.2,28.20,WSW,253,2.0,14.0,46,0.00,,,6.62,WUHU216DAVISWMX,2013-05-14 16:12:00,
2013-05-14 12:17:00,50.5,31.5,28.20,WSW,254,8.0,12.0,48,0.00,,,6.62,WUHU216DAVISWMX,2013-05-14 16:17:00,
2013-05-14 12:22:00,51.0,30.8,28.20,WSW,239,0.0,11.0,46,0.00,,,6.62,WUHU216DAVISWMX,2013-05-14 16:22:00,
2013-05-14 12:27:00,51.3,31.1,28.20,SW,215,7.0,12.0,46,0.00,,,6.62,WUHU216DAVISWMX,2013-05-14 16:27:00,
2013-05-14 12:32:00,51.7,30.9,28.19,West,259,0.0,12.0,45,0.00,,,6.62,WUHU216DAVISWMX,2013-05-14 16:32:00,
2013-05-14 12:37:00,51.6,31.4,28.19,South,186,7.0,9.0,46,0.00,,,6.62,WUHU216DAVISWMX,2013-05-14 16:37:00,
2013-05-14 12:42:00,52.4,31.6,28.19,SW,230,2.0,14.0,45,0.00,,,6.62,WUHU216DAVISWMX,2013-05-14 16:42:00,
2013-05-14 12:47:00,53.4,30.7,28.19,SW,231,6.0,15.0,42,0.00,,,6.62,WUHU216DAVISWMX,2013-05-14 16:47:00,
2013-05-14 12:52:00,53.3,28.1,28.19,WSW,254,11.0,15.0,38,0.00,,,6.62,WUHU216DAVISWMX,2013-05-14 16:52:00,
2013-05-14 12:57:00,53.1,28.6,28.19,WSW,254,8.0,15.0,39,0.00,,,6.62,WUHU216DAVISWMX,2013-05-14 16:57:00,
2013-05-14 13:02:00,53.1,27.9,28.18,WSW,251,5.0,12.0,38,0.00,,,6.62,WUHU216DAVISWMX,2013-05-14 17:02:00,
2013-05-14 13:07:00,53.7,27.8,28.18,SW,232,2.0,9.0,37,0.00,,,6.62,WUHU216DAVISWMX,2013-05-14 17:07:00,
2013-05-14 13:12:00,54.0,26.0,28.18,SW,229,6.0,18.0,34,0.00,,,6.62,WUHU216DAVISWMX,2013-05-14 17:12:00,
2013-05-14 13:17:00,53.4,27.6,28.18,SW,230,4.0,18.0,37,0.00,,,6.62,WUHU216DAVISWMX,2013-05-14 17:17:00,
2013-05-14 13:22:00,53.6,27.7,28.18,SW,233,9.0,11.0,37,0.00,,,6.62,WUHU216DAVISWMX,2013-05-14 17:22:00,
2013-05-14 13:27:00,53.0,26.5,28.18,SSW,200,3.0,14.0,36,0.00,,,6.62,WUHU216DAVISWMX,2013-05-14 17:27:00,
2013-05-14 13:32:00,52.7,28.2,28.18,WSW,246,2.0,14.0,39,0.00,,,6.62,WUHU216DAVISWMX,2013-05-14 17:32:00,
2013-05-14 13:37:00,53.1,28.6,28.17,SW,225,6.0,11.0,39,0.00,,,6.62,WUHU216DAVISWMX,2013-05-14 17:37:00,
2013-05-14 13:42:00,53.4,28.2,28.18,SSW,197,1.0,12.0,38,0.00,,,6.62,WUHU216DAVISWMX,2013-05-14 17:42:00,
2013-05-14 13:47:00,53.3,28.8,28.17,West,278,11.0,14.0,39,0.00,,,6.62,WUHU216DAVISWMX,2013-05-14 17:47:00,
2013-05-14 13:52:00,52.8,27.7,28.18,West,262,6.0,14.0,38,0.00,,,6.62,WUHU216DAVISWMX,2013-05-14 17:52:00,
2013-05-14 13:57:00,52.5,28.7,28.17,WSW,257,3.0,13.0,40,0.00,,,6.62,WUHU216DAVISWMX,2013-05-14 17:57:00,
2013-05-14 14:02:00,52.5,29.3,28.17,SW,236,0.0,13.0,41,0.00,,,6.62,WUHU216DAVISWMX,2013-05-14 18:02:00,
2013-05-14 14:07:00,52.4,29.2,28.17,West,268,9.0,11.0,41,0.00,,,6.62,WUHU216DAVISWMX,2013-05-14 18:07:00,
2013-05-14 14:12:00,52.1,28.9,28.17,WSW,246,0.0,11.0,41,0.00,,,6.62,WUHU216DAVISWMX,2013-05-14 18:12:00,
2013-05-14 14:17:00,51.9,29.4,28.17,West,270,0.0,9.0,42,0.00,,,6.62,WUHU216DAVISWMX,2013-05-14 18:17:00,
2013-05-14 14:22:00,52.3,29.7,28.16,SSW,196,2.0,9.0,42,0.00,,,6.62,WUHU216DAVISWMX,2013-05-14 18:22:00,
2013-05-14 14:27:00,53.0,29.8,28.16,South,178,0.0,7.0,41,0.00,,,6.62,WUHU216DAVISWMX,2013-05-14 18:27:00,
2013-05-14 14:32:00,53.7,29.8,28.17,WSW,253,6.0,12.0,40,0.00,,,6.62,WUHU216DAVISWMX,2013-05-14 18:32:00,
2013-05-14 14:37:00,54.1,30.1,28.17,West,273,0.0,12.0,40,0.00,,,6.62,WUHU216DAVISWMX,2013-05-14 18:37:00,
2013-05-14 14:42:00,55.0,30.9,28.17,NW,310,2.0,9.0,40,0.00,,,6.62,WUHU216DAVISWMX,2013-05-14 18:42:00,
2013-05-14 14:47:00,55.0,28.3,28.17,WNW,288,0.0,9.0,36,0.00,,,6.62,WUHU216DAVISWMX,2013-05-14 18:47:00,
2013-05-14 14:52:00,54.4,29.8,28.17,WNW,303,0.0,9.0,39,0.00,,,6.62,WUHU216DAVISWMX,2013-05-14 18:52:00,
2013-05-14 14:57:00,55.1,30.4,28.17,NW,306,0.0,9.0,39,0.00,,,6.62,WUHU216DAVISWMX,2013-05-14 18:57:00,
2013-05-14 15:02:00,54.5,28.5,28.16,WSW,253,0.0,12.0,37,0.00,,,6.62,WUHU216DAVISWMX,2013-05-14 19:02:00,
2013-05-14 15:07:00,54.2,28.3,28.16,West,271,0.0,12.0,37,0.00,,,6.62,WUHU216DAVISWMX,2013-05-14 19:07:00,
2013-05-14 15:12:00,54.2,28.9,28.16,SW,234,0.0,7.0,38,0.00,,,6.62,WUHU216DAVISWMX,2013-05-14 19:12:00,
2013-05-14 15:17:00,55.0,30.3,28.15,South,174,7.0,7.0,39,0.00,,,6.62,WUHU216DAVISWMX,2013-05-14 19:17:00,
2013-05-14 15:22:00,54.8,30.1,28.15,South,183,7.0,9.0,39,0.00,,,6.62,WUHU216DAVISWMX,2013-05-14 19:22:00,
2013-05-14 15:27:00,55.4,30.7,28.15,SSW,209,3.0,10.0,39,0.00,,,6.62,WUHU216DAVISWMX,2013-05-14 19:27:00,
2013-05-14 15:32:00,55.9,31.7,28.15,South,186,3.0,10.0,40,0.00,,,6.62,WUHU216DAVISWMX,2013-05-14 19:32:00,
2013-05-14 15:37:00,55.7,31.6,28.15,NW,326,0.0,8.0,40,0.00,,,6.62,WUHU216DAVISWMX,2013-05-14 19:37:00,
2013-05-14 15:42:00,55.7,30.9,28.15,NW,326,0.0,8.0,39,0.00,,,6.62,WUHU216DAVISWMX,2013-05-14 19:42:00,
2013-05-14 15:47:00,56.3,30.8,28.14,South,185,6.0,7.0,38,0.00,,,6.62,WUHU216DAVISWMX,2013-05-14 19:47:00,
2013-05-14 15:52:00,56.0,30.5,28.14,South,190,6.0,9.0,38,0.00,,,6.62,WUHU216DAVISWMX,2013-05-14 19:52:00,
2013-05-14 15:57:00,56.1,30.0,28.14,South,188,7.0,11.0,37,0.00,,,6.62,WUHU216DAVISWMX,2013-05-14 19:57:00,
2013-05-14 16:02:00,55.7,30.3,28.14,SSE,162,6.0,11.0,38,0.00,,,6.62,WUHU216DAVISWMX,2013-05-14 20:02:00,
2013-05-14 16:07:00,55.3,30.6,28.14,South,191,3.0,9.0,39,0.00,,,6.62,WUHU216DAVISWMX,2013-05-14 20:07:00,
2013-05-14 16:12:00,55.3,29.9,28.14,SSW,207,6.0,9.0,38,0.00,,,6.62,WUHU216DAVISWMX,2013-05-14 20:12:00,
2013-05-14 16:17:00,55.2,29.2,28.14,SSE,160,5.0,12.0,37,0.00,,,6.62,WUHU216DAVISWMX,2013-05-14 20:17:00,
2013-05-14 16:22:00,55.0,29.6,28.13,SSE,166,0.0,12.0,38,0.00,,,6.62,WUHU216DAVISWMX,2013-05-14 20:22:00,
2013-05-14 16:27:00,54.8,30.1,28.14,SW,215,0.0,6.0,39,0.00,,,6.62,WUHU216DAVISWMX,2013-05-14 20:27:00,
2013-05-14 16:32:00,54.5,29.9,28.14,WSW,248,0.0,6.0,39,0.00,,,6.62,WUHU216DAVISWMX,2013-05-14 20:32:00,
2013-05-14 16:37:00,54.7,30.0,28.13,SSW,208,0.0,6.0,39,0.00,,,6.62,WUHU216DAVISWMX,2013-05-14 20:37:00,
2013-05-14 16:42:00,54.8,30.1,28.13,SW,220,0.0,5.0,39,0.00,,,6.62,WUHU216DAVISWMX,2013-05-14 20:42:00,
2013-05-14 16:47:00,54.8,30.1,28.13,SW,221,0.0,5.0,39,0.00,,,6.62,WUHU216DAVISWMX,2013-05-14 20:47:00,
2013-05-14 16:52:00,54.9,30.2,28.12,SSW,207,1.0,5.0,39,0.00,,,6.62,WUHU216DAVISWMX,2013-05-14 20:52:00,
2013-05-14 16:57:00,55.1,30.4,28.13,SSW,207,0.0,5.0,39,0.00,,,6.62,WUHU216DAVISWMX,2013-05-14 20:57:00,
2013-05-14 17:02:00,55.1,30.4,28.13,SW,215,0.0,5.0,39,0.00,,,6.62,WUHU216DAVISWMX,2013-05-14 21:02:00,
2013-05-14 17:07:00,54.8,30.1,28.12,SW,216,0.0,5.0,39,0.00,,,6.62,WUHU216DAVISWMX,2013-05-14 21:07:00,
2013-05-14 17:12:00,54.7,31.9,28.12,SW,215,0.0,2.0,42,0.00,,,6.62,WUHU216DAVISWMX,2013-05-14 21:12:00,
2013-05-14 17:17:00,54.8,32.6,28.11,SW,215,2.0,2.0,43,0.00,,,6.62,WUHU216DAVISWMX,2013-05-14 21:17:00,
2013-05-14 17:22:00,55.0,32.8,28.11,SSW,211,0.0,3.0,43,0.00,,,6.62,WUHU216DAVISWMX,2013-05-14 21:22:00,
2013-05-14 17:27:00,55.1,34.0,28.11,SSW,211,0.0,3.0,45,0.00,,,6.62,WUHU216DAVISWMX,2013-05-14 21:27:00,
2013-05-14 17:32:00,54.8,34.3,28.11,SW,220,0.0,6.0,46,0.00,,,6.62,WUHU216DAVISWMX,2013-05-14 21:32:00,
2013-05-14 17:37:00,54.5,33.5,28.11,SW,220,2.0,6.0,45,0.00,,,6.62,WUHU216DAVISWMX,2013-05-14 21:37:00,
2013-05-14 17:42:00,54.4,34.0,28.10,SSW,195,0.0,5.0,46,0.00,,,6.62,WUHU216DAVISWMX,2013-05-14 21:42:00,
2013-05-14 17:47:00,54.1,34.2,28.10,SE,132,0.0,5.0,47,0.00,,,6.62,WUHU216DAVISWMX,2013-05-14 21:47:00,
2013-05-14 17:52:00,54.1,34.2,28.10,ESE,109,6.0,6.0,47,0.00,,,6.62,WUHU216DAVISWMX,2013-05-14 21:52:00,
2013-05-14 17:57:00,54.1,33.1,28.10,SE,127,0.0,6.0,45,0.00,,,6.62,WUHU216DAVISWMX,2013-05-14 21:57:00,
2013-05-14 18:02:00,54.2,33.2,28.08,SE,136,4.0,6.0,45,0.00,,,6.62,WUHU216DAVISWMX,2013-05-14 22:02:00,
2013-05-14 18:07:00,54.2,33.2,28.08,South,175,4.0,9.0,45,0.00,,,6.62,WUHU216DAVISWMX,2013-05-14 22:07:00,
2013-05-14 18:12:00,54.4,33.4,28.08,South,186,0.0,9.0,45,0.00,,,6.62,WUHU216DAVISWMX,2013-05-14 22:12:00,
2013-05-14 18:17:00,54.4,33.4,28.08,ESE,118,0.0,5.0,45,0.00,,,6.62,WUHU216DAVISWMX,2013-05-14 22:17:00,
2013-05-14 18:22:00,54.4,33.4,28.08,South,179,0.0,8.0,45,0.00,,,6.62,WUHU216DAVISWMX,2013-05-14 22:22:00,
2013-05-14 18:27:00,54.4,32.8,28.08,South,170,0.0,8.0,44,0.00,,,6.62,WUHU216DAVISWMX,2013-05-14 22:27:00,
2013-05-14 18:32:00,54.5,33.5,28.07,SSE,168,0.0,8.0,45,0.00,,,6.62,WUHU216DAVISWMX,2013-05-14 22:32:00,
2013-05-14 18:37:00,54.5,33.5,28.07,ESE,109,1.0,7.0,45,0.00,,,6.62,WUHU216DAVISWMX,2013-05-14 22:37:00,
2013-05-14 18:42:00,54.5,33.5,28.07,SE,139,6.0,9.0,45,0.00,,,6.62,WUHU216DAVISWMX,2013-05-14 22:42:00,
2013-05-14 18:47:00,54.5,33.5,28.07,SE,142,2.0,9.0,45,0.00,,,6.62,WUHU216DAVISWMX,2013-05-14 22:47:00,
2013-05-14 18:52:00,54.6,34.1,28.07,ESE,107,4.0,6.0,46,0.00,,,6.62,WUHU216DAVISWMX,2013-05-14 22:52:00,
2013-05-14 18:57:00,54.4,33.4,28.07,SSE,149,3.0,9.0,45,0.00,,,6.62,WUHU216DAVISWMX,2013-05-14 22:57:00,
2013-05-14 19:02:00,54.4,34.0,28.08,ESE,112,0.0,9.0,46,0.00,,,6.62,WUHU216DAVISWMX,2013-05-14 23:02:00,
2013-05-14 19:08:00,54.2,33.2,28.08,ENE,77,2.0,7.0,45,0.00,,,6.62,WUHU216DAVISWMX,2013-05-14 23:08:00,
2013-05-14 19:13:00,54.0,33.0,28.08,ESE,107,3.0,9.0,45,0.00,,,6.62,WUHU216DAVISWMX,2013-05-14 23:13:00,
2013-05-14 19:18:00,53.8,33.4,28.08,SE,126,1.0,9.0,46,0.00,,,6.62,WUHU216DAVISWMX,2013-05-14 23:18:00,
2013-05-14 19:23:00,53.7,33.3,28.07,SE,126,0.0,8.0,46,0.00,,,6.62,WUHU216DAVISWMX,2013-05-14 23:23:00,
2013-05-14 19:28:00,53.7,33.3,28.07,SE,146,5.0,8.0,46,0.00,,,6.62,WUHU216DAVISWMX,2013-05-14 23:28:00,
2013-05-14 19:33:00,53.7,33.3,28.07,SSE,167,5.0,8.0,46,0.00,,,6.62,WUHU216DAVISWMX,2013-05-14 23:33:00,
2013-05-14 19:38:00,53.6,33.2,28.07,South,189,0.0,7.0,46,0.00,,,6.62,WUHU216DAVISWMX,2013-05-14 23:38:00,
2013-05-14 19:43:00,53.6,33.8,28.08,South,176,0.0,5.0,47,0.00,,,6.62,WUHU216DAVISWMX,2013-05-14 23:43:00,
2013-05-14 19:48:00,53.4,33.0,28.08,ESE,114,0.0,7.0,46,0.00,,,6.62,WUHU216DAVISWMX,2013-05-14 23:48:00,
2013-05-14 19:53:00,53.3,32.4,28.07,SE,125,1.0,11.0,45,0.00,,,6.62,WUHU216DAVISWMX,2013-05-14 23:53:00,
2013-05-14 19:58:00,53.3,33.0,28.08,SSE,159,4.0,11.0,46,0.00,,,6.62,WUHU216DAVISWMX,2013-05-14 23:58:00,
2013-05-14 20:03:00,53.3,33.0,28.08,SSE,160,2.0,7.0,46,0.00,,,6.62,WUHU216DAVISWMX,2013-05-15 00:03:00,
2013-05-14 20:08:00,53.3,33.0,28.08,ESE,108,5.0,7.0,46,0.00,,,6.62,WUHU216DAVISWMX,2013-05-15 00:08:00,
2013-05-14 20:13:00,53.1,32.8,28.08,SE,146,2.0,9.0,46,0.00,,,6.62,WUHU216DAVISWMX,2013-05-15 00:13:00,
2013-05-14 20:18:00,53.1,32.8,28.07,SE,145,0.0,9.0,46,0.00,,,6.62,WUHU216DAVISWMX,2013-05-15 00:18:00,
2013-05-14 20:23:00,53.0,33.2,28.08,SE,145,0.0,6.0,47,0.00,,,6.62,WUHU216DAVISWMX,2013-05-15 00:23:00,
2013-05-14 20:28:00,53.0,32.7,28.08,South,178,0.0,6.0,46,0.00,,,6.62,WUHU216DAVISWMX,2013-05-15 00:28:00,
2013-05-14 20:33:00,52.8,33.1,28.08,South,178,0.0,6.0,47,0.00,,,6.62,WUHU216DAVISWMX,2013-05-15 00:33:00,
2013-05-14 20:38:00,52.7,33.5,28.09,East,79,0.0,6.0,48,0.00,,,6.62,WUHU216DAVISWMX,2013-05-15 00:38:00,
2013-05-14 20:43:00,52.7,33.5,28.09,East,79,0.0,6.0,48,0.00,,,6.62,WUHU216DAVISWMX,2013-05-15 00:43:00,
2013-05-14 20:48:00,52.7,33.5,28.09,East,80,0.0,5.0,48,0.00,,,6.62,WUHU216DAVISWMX,2013-05-15 00:48:00,
2013-05-14 20:53:00,52.7,33.5,28.09,ENE,69,0.0,5.0,48,0.00,,,6.62,WUHU216DAVISWMX,2013-05-15 00:53:00,
2013-05-14 20:58:00,52.7,33.0,28.09,ENE,69,0.0,4.0,47,0.00,,,6.62,WUHU216DAVISWMX,2013-05-15 00:58:00,
2013-05-14 21:03:00,52.7,33.5,28.09,ENE,69,0.0,0.0,48,0.00,,,6.62,WUHU216DAVISWMX,2013-05-15 01:03:00,
2013-05-14 21:08:00,52.7,33.5,28.09,ENE,69,0.0,0.0,48,0.00,,,6.62,WUHU216DAVISWMX,2013-05-15 01:08:00,
2013-05-14 21:13:00,52.5,33.3,28.09,ENE,71,0.0,0.0,48,0.00,,,6.62,WUHU216DAVISWMX,2013-05-15 01:13:00,
2013-05-14 21:18:00,52.4,33.2,28.09,ENE,69,2.0,2.0,48,0.00,,,6.62,WUHU216DAVISWMX,2013-05-15 01:18:00,
2013-05-14 21:23:00,52.3,33.1,28.08,East,79,8.0,8.0,48,0.00,,,6.62,WUHU216DAVISWMX,2013-05-15 01:23:00,
2013-05-14 21:28:00,52.3,33.7,28.09,ESE,115,0.0,8.0,49,0.00,,,6.62,WUHU216DAVISWMX,2013-05-15 01:28:00,
2013-05-14 21:33:00,52.1,32.9,28.09,ESE,115,0.0,5.0,48,0.00,,,6.62,WUHU216DAVISWMX,2013-05-15 01:33:00,
2013-05-14 21:38:00,52.0,32.9,28.09,East,81,4.0,9.0,48,0.00,,,6.62,WUHU216DAVISWMX,2013-05-15 01:38:00,
2013-05-14 21:43:00,52.0,33.4,28.10,East,91,0.0,9.0,49,0.00,,,6.62,WUHU216DAVISWMX,2013-05-15 01:43:00,
2013-05-14 21:48:00,52.0,32.9,28.10,East,97,5.0,7.0,48,0.00,,,6.62,WUHU216DAVISWMX,2013-05-15 01:48:00,
2013-05-14 21:53:00,51.8,33.2,28.10,NNE,33,1.0,7.0,49,0.00,,,6.62,WUHU216DAVISWMX,2013-05-15 01:53:00,
2013-05-14 21:58:00,51.8,33.2,28.10,NE,41,0.0,4.0,49,0.00,,,6.62,WUHU216DAVISWMX,2013-05-15 01:58:00,
2013-05-14 22:03:00,51.7,33.1,28.10,NE,40,7.0,7.0,49,0.00,,,6.62,WUHU216DAVISWMX,2013-05-15 02:03:00,
2013-05-14 22:08:00,51.5,33.4,28.10,East,88,3.0,10.0,50,0.00,,,6.62,WUHU216DAVISWMX,2013-05-15 02:08:00,
2013-05-14 22:13:00,51.6,33.5,28.10,East,101,3.0,10.0,50,0.00,,,6.62,WUHU216DAVISWMX,2013-05-15 02:13:00,
2013-05-14 22:18:00,51.4,33.4,28.09,ENE,63,0.0,10.0,50,0.00,,,6.62,WUHU216DAVISWMX,2013-05-15 02:18:00,
2013-05-14 22:23:00,51.4,33.9,28.10,SE,142,0.0,10.0,51,0.00,,,6.62,WUHU216DAVISWMX,2013-05-15 02:23:00,
2013-05-14 22:28:00,51.4,33.9,28.10,SSE,149,0.0,10.0,51,0.00,,,6.62,WUHU216DAVISWMX,2013-05-15 02:28:00,
2013-05-14 22:33:00,51.3,33.8,28.09,SSE,148,0.0,7.0,51,0.00,,,6.62,WUHU216DAVISWMX,2013-05-15 02:33:00,
2013-05-14 22:38:00,51.3,33.8,28.09,South,171,0.0,7.0,51,0.00,,,6.62,WUHU216DAVISWMX,2013-05-15 02:38:00,
2013-05-14 22:43:00,51.3,33.8,28.09,South,170,0.0,5.0,51,0.00,,,6.62,WUHU216DAVISWMX,2013-05-15 02:43:00,
2013-05-14 22:48:00,51.3,34.3,28.09,East,80,0.0,1.0,52,0.00,,,6.62,WUHU216DAVISWMX,2013-05-15 02:48:00,
2013-05-14 22:53:00,51.3,34.3,28.08,South,175,0.0,8.0,52,0.00,,,6.62,WUHU216DAVISWMX,2013-05-15 02:53:00,
2013-05-14 22:58:00,51.3,34.3,28.08,East,80,0.0,8.0,52,0.00,,,6.62,WUHU216DAVISWMX,2013-05-15 02:58:00,
2013-05-14 23:03:00,51.3,34.3,28.08,ESE,122,2.0,5.0,52,0.00,,,6.62,WUHU216DAVISWMX,2013-05-15 03:03:00,
2013-05-14 23:08:00,51.3,34.3,28.08,NE,51,4.0,7.0,52,0.00,,,6.62,WUHU216DAVISWMX,2013-05-15 03:08:00,
2013-05-14 23:13:00,51.3,34.8,28.08,SSE,147,3.0,11.0,53,0.00,,,6.62,WUHU216DAVISWMX,2013-05-15 03:13:00,
2013-05-14 23:18:00,51.3,34.3,28.07,SE,132,0.0,11.0,52,0.00,,,6.62,WUHU216DAVISWMX,2013-05-15 03:18:00,
2013-05-14 23:23:00,51.1,34.1,28.07,SSE,163,0.0,7.0,52,0.00,,,6.62,WUHU216DAVISWMX,2013-05-15 03:23:00,
2013-05-14 23:28:00,51.1,34.1,28.07,SSE,157,8.0,10.0,52,0.00,,,6.62,WUHU216DAVISWMX,2013-05-15 03:28:00,
2013-05-14 23:33:00,51.1,34.1,28.07,South,170,0.0,10.0,52,0.00,,,6.62,WUHU216DAVISWMX,2013-05-15 03:33:00,
2013-05-14 23:38:00,51.1,34.1,28.07,ESE,117,0.0,9.0,52,0.00,,,6.62,WUHU216DAVISWMX,2013-05-15 03:38:00,
2013-05-14 23:43:00,51.1,34.1,28.07,SSE,155,1.0,4.0,52,0.00,,,6.62,WUHU216DAVISWMX,2013-05-15 03:43:00,
2013-05-14 23:48:00,51.1,34.6,28.06,East,99,0.0,4.0,53,0.00,,,6.62,WUHU216DAVISWMX,2013-05-15 03:48:00,
2013-05-14 23:53:00,51.1,34.6,28.07,SE,138,0.0,6.0,53,0.00,,,6.62,WUHU216DAVISWMX,2013-05-15 03:53:00,
2013-05-14 23:58:00,51.1,34.6,28.06,SSE,159,0.0,6.0,53,0.00,,,6.62,WUHU216DAVISWMX,2013-05-15 03:58:00,